San Juan, PR

5:14 AM AST on May 24, 2018 (GMT -0400)
Luis Munoz Marin International

Weather History for TJSJ - February, 2015

Change the Weather History Date:

Thursday, February 26, 2015

  Actual Average Record
Temperature  
Mean Temperature 80 °F 78 °F  
Max Temperature 87 °F 84 °F 89 °F (2007)
Min Temperature 72 °F 72 °F 62 °F (1956)
Degree Days  
Heating Degree Days 0 0  
Month to date heating degree days 0 0  
Since 1 July heating degree days 0 0  
Cooling Degree Days 15 13  
Month to date cooling degree days 375 338  
Year to date cooling degree days 813 729  
Growing Degree Days 30 (Base 50)    
Moisture  
Dew Point 70 °F    
Average Humidity 69    
Maximum Humidity 87    
Minimum Humidity 51    
Precipitation  
Precipitation 0.10 in 0.08 in 0.73 in (1989)
Month to date precipitation 3.17 2.24  
Year to date precipitation 8.13 6.00  
Sea Level Pressure  
Sea Level Pressure 30.04 in    
Wind  
Wind Speed 11 mph (East)    
Max Wind Speed 25 mph    
Max Gust Speed 32 mph    
Visibility 10 miles    
Events Rain    
T = Trace of Precipitation, MM = Missing Value Source: NWS Daily Summary

Daily Weather History Graph

Daily Weather History Graph

Search for Another Location

Airport or City:

Astronomy

Feb. 26, 2015 Rise Set
Actual Time 6:45 AM AST 6:28 PM AST
Civil Twilight 6:23 AM AST 6:50 PM AST
Nautical Twilight 5:57 AM AST 7:16 PM AST
Astronomical Twilight 5:32 AM AST 7:41 PM AST
Moon 12:50 PM AST (2/26) 1:14 AM AST (2/26)
Length of Visible Light 12h 27m
Length of Day
11h 43m
First Quarter, 60% of the Moon is Illuminated
Feb 26
First Quarter
Mar 5
Full
Mar 13
Last Quarter
Mar 20
New
Mar 27
First Quarter

Hourly Weather History & Observations

Time (AST) Temp. Heat Index Dew Point Humidity Pressure Visibility Wind Dir Wind Speed Gust Speed Precip Events Conditions
12:56 AM 75.9 °F - 69.1 °F 79% 30.05 in 10.0 mi SE 4.6 mph - N/A   Partly Cloudy
1:56 AM 75.0 °F - 69.1 °F 82% 30.03 in 10.0 mi Calm Calm - N/A   Partly Cloudy
2:56 AM 75.0 °F - 69.1 °F 82% 30.01 in 10.0 mi Calm Calm - N/A   Partly Cloudy
3:56 AM 75.0 °F - 70.0 °F 84% 30.00 in 10.0 mi ESE 4.6 mph - N/A   Partly Cloudy
4:56 AM 75.0 °F - 70.0 °F 84% 30.00 in 10.0 mi ESE 4.6 mph - N/A   Partly Cloudy
5:56 AM 73.9 °F - 70.0 °F 87% 30.02 in 10.0 mi Variable 3.5 mph - N/A   Scattered Clouds
6:56 AM 75.0 °F - 71.1 °F 87% 30.04 in 10.0 mi SE 4.6 mph - N/A   Partly Cloudy
7:56 AM 77.0 °F - 71.1 °F 82% 30.05 in 10.0 mi Calm Calm - N/A   Partly Cloudy
8:56 AM 80.1 °F 83.6 °F 71.1 °F 74% 30.07 in 10.0 mi East 11.5 mph - N/A   Scattered Clouds
9:56 AM 82.9 °F 86.5 °F 69.1 °F 63% 30.08 in 10.0 mi ESE 9.2 mph 19.6 mph N/A   Scattered Clouds
10:56 AM 84.9 °F 88.2 °F 68.0 °F 57% 30.07 in 10.0 mi East 17.3 mph 25.3 mph N/A   Partly Cloudy
11:56 AM 86.0 °F 89.4 °F 68.0 °F 55% 30.06 in 10.0 mi East 17.3 mph 21.9 mph N/A   Scattered Clouds
12:56 PM 84.9 °F 88.2 °F 68.0 °F 57% 30.03 in 10.0 mi East 20.7 mph - N/A   Scattered Clouds
1:56 PM 86.0 °F 89.4 °F 68.0 °F 55% 30.01 in 10.0 mi East 20.7 mph 27.6 mph N/A   Partly Cloudy
2:56 PM 86.0 °F 88.8 °F 66.9 °F 53% 30.00 in 10.0 mi East 18.4 mph 28.8 mph N/A   Scattered Clouds
3:56 PM 84.9 °F 88.8 °F 69.1 °F 59% 29.99 in 10.0 mi East 20.7 mph 24.2 mph N/A   Scattered Clouds
4:56 PM 82.9 °F 85.8 °F 68.0 °F 60% 30.01 in 10.0 mi East 18.4 mph 24.2 mph N/A   Scattered Clouds
5:56 PM 81.0 °F 83.8 °F 68.0 °F 65% 30.02 in 10.0 mi East 13.8 mph - N/A   Scattered Clouds
6:56 PM 78.1 °F - 70.0 °F 76% 30.04 in 10.0 mi East 10.4 mph - N/A   Scattered Clouds
7:56 PM 78.1 °F - 72.0 °F 81% 30.06 in 10.0 mi East 8.1 mph - N/A   Scattered Clouds
8:56 PM 77.0 °F - 71.1 °F 82% 30.08 in 10.0 mi East 8.1 mph - N/A   Scattered Clouds
9:56 PM 77.0 °F - 71.1 °F 82% 30.09 in 10.0 mi East 6.9 mph - N/A   Scattered Clouds
10:56 PM 75.9 °F - 70.0 °F 82% 30.09 in 9.0 mi ENE 18.4 mph 23.0 mph 0.00 in Rain Light Rain
11:56 PM 73.0 °F - 71.1 °F 93% 30.12 in 10.0 mi East 24.2 mph 28.8 mph 0.10 in   Mostly Cloudy